GW4853 Weather Reports


Display with metric or nautical units.
time (UTC)temp
F
wind
direction
speed
MPH
gust
MPH
rain 1hr
in
rain 24hr
in
rain mn
in
humidity
%
barometer
mb
20260504003943 57 349 0.0 1.0 0.00 0.00 0.00 45 1014.1
20260504003438 58 333 0.0 0.0 0.00 0.00 0.00 43 1014.2
20260504002935 58 332 2.0 2.0 0.00 0.00 0.00 42 1014.0
20260504002432 58 22 1.0 3.0 0.00 0.00 0.00 41 1013.9
20260504001930 58 320 3.0 3.0 0.00 0.00 0.00 44 1014.1
20260504001427 58 13 2.0 3.0 0.00 0.00 0.00 47 1014.2
20260504000924 58 352 2.0 2.0 0.00 0.00 0.00 46 1014.1
20260504000423 58 91 1.0 1.0 0.00 0.00 0.00 44 1014.0
20260503235918 58 91 1.0 1.0 0.00 0.00 0.00 42 1014.0
20260503235416 59 73 0.0 1.0 0.00 0.00 0.00 41 1014.1
20260503234913 59 108 0.0 1.0 0.00 0.00 0.00 40 1014.2
20260503234411 59 151 0.0 2.0 0.00 0.00 0.00 42 1014.3
20260503233909 60 267 0.0 2.0 0.00 0.00 0.00 41 1013.9
20260503233405 60 150 2.0 2.0 0.00 0.00 0.00 38 1014.1
20260503232901 60 197 1.0 4.0 0.00 0.00 0.00 38 1014.1
20260503232358 60 68 2.0 2.0 0.00 0.00 0.00 39 1014.1
20260503231856 60 93 1.0 1.0 0.00 0.00 0.00 39 1014.3
20260503231353 60 230 1.0 2.0 0.00 0.00 0.00 38 1014.5
20260503230849 60 188 3.0 4.0 0.00 0.00 0.00 36 1014.2
20260503230346 60 137 1.0 2.0 0.00 0.00 0.00 37 1014.4
20260503225844 61 251 1.0 2.0 0.00 0.00 0.00 39 1014.6
20260503225339 61 293 1.0 2.0 0.00 0.00 0.00 36 1014.7
20260503224836 61 208 2.0 6.0 0.00 0.00 0.00 35 1014.7
20260503224333 61 301 3.0 4.0 0.00 0.00 0.00 35 1014.6
20260503223831 61 259 0.0 4.0 0.00 0.00 0.00 37 1014.9
20260503223328 61 153 2.0 3.0 0.00 0.00 0.00 37 1015.0
20260503222824 61 237 2.0 4.0 0.00 0.00 0.00 34 1014.9
20260503222323 61 231 2.0 7.0 0.00 0.00 0.00 35 1015.0
20260503221820 62 215 1.0 4.0 0.00 0.00 0.00 36 1015.1
20260503221319 63 215 7.0 13.0 0.00 0.00 0.00 35 1015.0
20260503220814 63 180 2.0 3.0 0.00 0.00 0.00 38 1015.1
20260503220312 64 209 4.0 7.0 0.00 0.00 0.00 34 1015.0
20260503215808 63 49 1.0 4.0 0.00 0.00 0.00 34 1015.0
20260503215305 64 308 3.0 6.0 0.00 0.00 0.00 35 1014.7
20260503214803 64 41 2.0 9.0 0.00 0.00 0.00 35 1014.9
20260503214300 65 213 2.0 6.0 0.00 0.00 0.00 32 1014.8
20260503213758 64 209 1.0 4.0 0.00 0.00 0.00 32 1015.1
20260503213255 66 245 3.0 4.0 0.00 0.00 0.00 31 1015.1
20260503212752 65 31 0.0 1.0 0.00 0.00 0.00 43 1015.0
20260503212249 64 236 0.0 8.0 0.00 0.00 0.00 33 1015.1
20260503211747 64 354 1.0 8.0 0.00 0.00 0.00 34 1015.1
20260503211243 64 147 4.0 6.0 0.00 0.00 0.00 32 1015.1
20260503210738 65 229 5.0 8.0 0.00 0.00 0.00 31 1015.1
20260503210236 64 253 0.0 1.0 0.00 0.00 0.00 38 1015.1
20260503205731 63 196 1.0 3.0 0.00 0.00 0.00 32 1015.1
20260503205227 64 198 5.0 7.0 0.00 0.00 0.00 32 1015.0
20260503204724 64 200 3.0 7.0 0.00 0.00 0.00 34 1015.0
20260503204222 63 163 2.0 7.0 0.00 0.00 0.00 36 1015.0
20260503203719 63 264 1.0 4.0 0.00 0.00 0.00 37 1015.1
20260503203216 62 199 4.0 9.0 0.00 0.00 0.00 35 1015.3
20260503202714 63 216 3.0 7.0 0.00 0.00 0.00 32 1015.6
20260503202211 63 218 2.0 6.0 0.00 0.00 0.00 34 1015.6
20260503201709 63 149 2.0 4.0 0.00 0.00 0.00 32 1015.5
20260503201206 63 267 2.0 6.0 0.00 0.00 0.00 33 1015.7
20260503200702 62 320 4.0 9.0 0.00 0.00 0.00 35 1015.8
20260503200159 63 296 2.0 4.0 0.00 0.00 0.00 36 1015.9
20260503195656 62 242 2.0 4.0 0.00 0.00 0.00 34 1015.9
20260503195153 62 175 4.0 7.0 0.00 0.00 0.00 33 1016.2
20260503194650 63 298 2.0 3.0 0.00 0.00 0.00 39 1016.2
20260503194145 62 177 3.0 6.0 0.00 0.00 0.00 39 1016.3
20260503193642 62 162 5.0 8.0 0.00 0.00 0.00 34 1016.7
20260503193138 63 227 4.0 11.0 0.00 0.00 0.00 33 1016.6
20260503192633 62 167 2.0 7.0 0.00 0.00 0.00 37 1016.6
20260503192129 62 234 5.0 6.0 0.00 0.00 0.00 34 1016.6
20260503191626 62 273 1.0 2.0 0.00 0.00 0.00 34 1016.7
20260503191124 62 293 1.0 6.0 0.00 0.00 0.00 39 1016.9
20260503190620 61 160 4.0 6.0 0.00 0.00 0.00 32 1017.0
20260503190117 62 184 3.0 9.0 0.00 0.00 0.00 34 1017.4
20260503185614 62 237 2.0 3.0 0.00 0.00 0.00 36 1017.2
20260503185114 62 316 4.0 6.0 0.00 0.00 0.00 38 1017.7
20260503184609 61 149 2.0 4.0 0.00 0.00 0.00 43 1017.6
20260503184106 59 143 3.0 7.0 0.00 0.00 0.00 36 1017.7
20260503183603 62 145 2.0 4.0 0.00 0.00 0.00 42 1017.8
20260503183100 61 153 2.0 6.0 0.00 0.00 0.00 41 1018.0
20260503182558 60 215 2.0 7.0 0.00 0.00 0.00 36 1018.2
20260503182056 60 271 3.0 9.0 0.00 0.00 0.00 35 1018.1
20260503181553 61 218 3.0 7.0 0.00 0.00 0.00 40 1018.2
20260503181049 60 254 6.0 9.0 0.00 0.00 0.00 38 1018.4
20260503180546 60 204 3.0 8.0 0.00 0.00 0.00 35 1018.2
20260503180044 59 229 5.0 7.0 0.00 0.00 0.00 38 1018.3
20260503175541 59 231 2.0 4.0 0.00 0.00 0.00 38 1018.3
20260503175038 58 329 4.0 7.0 0.00 0.00 0.00 40 1018.4
20260503174535 59 231 2.0 6.0 0.00 0.00 0.00 40 1018.7
20260503174031 59 272 2.0 6.0 0.00 0.00 0.00 41 1018.7
20260503173527 58 299 1.0 7.0 0.00 0.00 0.00 38 1018.8
20260503173023 59 58 1.0 7.0 0.00 0.00 0.00 45 1018.6
20260503172521 59 125 1.0 6.0 0.00 0.00 0.00 38 1018.9
20260503172018 59 306 3.0 6.0 0.00 0.00 0.00 41 1018.8
20260503171514 58 237 1.0 4.0 0.00 0.00 0.00 47 1018.9
20260503171012 58 346 1.0 4.0 0.00 0.00 0.00 45 1019.1
20260503170508 58 203 4.0 8.0 0.00 0.00 0.00 42 1018.9
20260503150900 54 307 4.0 6.0 0.00 0.00 0.00 46 1020.9
20260503150356 53 222 2.0 6.0 0.00 0.00 0.00 44 1020.9
20260503131250 45 200 1.0 3.0 0.00 0.00 0.00 76 1020.4
20260503130748 44 167 2.0 3.0 0.00 0.00 0.00 82 1020.2
20260503130245 43 170 3.0 4.0 0.00 0.00 0.00 83 1020.3
20260503120211 36 80 1.0 1.0 0.00 0.00 0.00 99 1019.4
20260503110638 33 94 1.0 1.0 0.00 0.00 0.00 99 1018.7
20260503110136 33 124 0.0 1.0 0.00 0.00 0.00 99 1018.7
20260503081451 35 61 0.0 1.0 0.00 0.00 0.00 99 1017.7
20260503080948 35 61 1.0 1.0 0.00 0.00 0.00 99 1017.7
20260503080445 35 61 1.0 1.0 0.00 0.00 0.00 99 1017.6
20260503072921 33 60 0.0 1.0 0.00 0.00 0.00 99 1017.4
20260503072419 33 60 0.0 1.0 0.00 0.00 0.00 99 1017.5
20260503071915 33 60 0.0 0.0 0.00 0.00 0.00 99 1017.5
20260503071413 33 60 0.0 1.0 0.00 0.00 0.00 99 1017.5
20260503070908 33 60 0.0 0.0 0.00 0.00 0.00 99 1017.2
20260503070406 33 60 0.0 0.0 0.00 0.00 0.00 99 1017.4
20260503060332 33 60 0.0 0.0 0.00 0.00 0.00 97 1017.5
20260503054820 34 60 0.0 0.0 0.00 0.00 0.00 97 1017.6
20260503054315 34 60 0.0 0.0 0.00 0.00 0.00 97 1017.5
20260503053814 35 60 0.0 0.0 0.00 0.00 0.00 97 1017.5
20260503053312 35 60 0.0 0.0 0.00 0.00 0.00 97 1017.4
20260503052808 35 60 0.0 0.0 0.00 0.00 0.00 97 1017.7
20260503052305 35 60 0.0 0.0 0.00 0.00 0.00 97 1017.7
20260503051800 35 60 1.0 1.0 0.00 0.00 0.00 97 1017.7
20260503051257 35 60 0.0 0.0 0.00 0.00 0.00 97 1017.4
20260503050754 36 60 0.0 0.0 0.00 0.00 0.00 97 1017.7
20260503050250 35 60 0.0 0.0 0.00 0.00 0.00 96 1017.6
20260503045748 36 60 0.0 0.0 0.00 0.00 0.00 96 1017.5
20260503045246 36 60 0.0 0.0 0.00 0.00 0.00 96 1017.7
20260503044741 35 60 0.0 0.0 0.00 0.00 0.00 96 1017.4
20260503044239 35 60 0.0 0.0 0.00 0.00 0.00 95 1017.4
20260503043736 35 60 0.0 0.0 0.00 0.00 0.00 95 1017.5
20260503043233 36 60 0.0 0.0 0.00 0.00 0.00 94 1017.2
20260503042729 36 60 0.0 0.0 0.00 0.00 0.00 94 1017.4
20260503042226 37 60 0.0 0.0 0.00 0.00 0.00 94 1017.2
20260503041722 37 60 0.0 0.0 0.00 0.00 0.00 94 1017.4
20260503041220 37 60 0.0 0.0 0.00 0.00 0.00 94 1017.2
20260503040717 37 60 0.0 0.0 0.00 0.00 0.00 93 1017.4
20260503040215 37 60 0.0 0.0 0.00 0.00 0.00 93 1017.2
20260503035711 38 60 0.0 0.0 0.00 0.00 0.00 93 1017.5
20260503035209 38 60 0.0 0.0 0.00 0.00 0.00 92 1017.4
20260503034706 38 60 0.0 0.0 0.00 0.00 0.00 92 1017.2
20260503034203 38 60 0.0 0.0 0.00 0.00 0.00 91 1017.5
20260503033700 38 60 0.0 0.0 0.00 0.00 0.00 91 1017.4
20260503033157 38 60 0.0 0.0 0.00 0.00 0.00 90 1017.4
20260503032655 37 60 0.0 0.0 0.00 0.00 0.00 89 1017.4
20260503032154 37 60 0.0 0.0 0.00 0.00 0.00 87 1017.4
20260503031651 38 60 0.0 0.0 0.00 0.00 0.00 87 1017.1
20260503031149 38 60 0.0 0.0 0.00 0.00 0.00 87 1017.4
20260503030644 39 60 0.0 0.0 0.00 0.00 0.00 86 1017.4
20260503030141 39 60 0.0 1.0 0.00 0.00 0.00 86 1017.4
20260503025637 39 60 0.0 0.0 0.00 0.00 0.00 85 1017.2
20260503025136 40 60 0.0 0.0 0.00 0.00 0.00 84 1017.1
20260503024632 40 60 0.0 1.0 0.00 0.00 0.00 83 1017.4
20260503024130 40 60 1.0 1.0 0.00 0.00 0.00 83 1017.0
20260503023627 40 60 0.0 1.0 0.00 0.00 0.00 82 1017.0
20260503023124 41 60 0.0 1.0 0.00 0.00 0.00 81 1017.1
20260503022619 41 60 1.0 1.0 0.00 0.00 0.00 79 1017.0
20260503022114 41 56 1.0 1.0 0.00 0.00 0.00 78 1017.0
20260503021611 41 62 0.0 2.0 0.00 0.00 0.00 78 1016.8
20260503021108 42 61 1.0 1.0 0.00 0.00 0.00 78 1017.1
20260503020605 42 62 1.0 2.0 0.00 0.00 0.00 77 1017.0
20260503015559 42 59 1.0 2.0 0.00 0.00 0.00 74 1016.7
20260503015056 43 60 1.0 2.0 0.00 0.00 0.00 73 1017.0
20260503014552 44 41 1.0 2.0 0.00 0.00 0.00 70 1016.7
20260503014050 44 19 1.0 2.0 0.00 0.00 0.00 69 1016.7
20260503013547 44 46 1.0 2.0 0.00 0.00 0.00 70 1016.6
20260503013044 44 44 1.0 2.0 0.00 0.00 0.00 69 1016.5
20260503012542 44 49 1.0 2.0 0.00 0.00 0.00 70 1016.5
20260503012038 44 49 2.0 2.0 0.00 0.00 0.00 68 1016.3
20260503011535 44 55 1.0 2.0 0.00 0.00 0.00 68 1016.4
20260503011032 44 52 1.0 3.0 0.00 0.00 0.00 67 1016.4
20260503010528 45 51 0.0 2.0 0.00 0.00 0.00 66 1016.2
20260503010026 45 54 0.0 2.0 0.00 0.00 0.00 66 1016.2
20260503005523 46 34 1.0 2.0 0.00 0.00 0.00 64 1016.2
20260503005020 46 324 1.0 2.0 0.00 0.00 0.00 62 1016.0
20260503004516 47 319 3.0 4.0 0.00 0.00 0.00 61 1016.0